CSS (MENGTIAN)

Last updated on Wed Sep 17 2025 00:02:11 GMT+0000 (Coordinated Universal Time)

1 54216U 22143A 25259.52513454 .00028295 00000+0 34808-3 0 9993 2 54216 41.4642 186.9194 0003786 355.2526 4.8276 15.59608713158647
UTC large
Height (km)
Speed (km/s)
/
Latitude / Longitude
Inclination (degrees)
Orbital Period (minutes)
Azimuth
Elevation
Range (km)
Doppler Factor

Next 0 passes for location: London (51.5072 / 0.1276)

Sorry there are no passes over London.